Location: Arroyo de Valdeoliva
(40.1604°N, 4.9878°W)
Time: 03:19:13
(UTC+00:00)

Hubble Space Telescope - Visible Passes

Search period start: 18 February 2026 00:00
Search period end: 28 February 2026 00:00
Orbit: 478 x 479 km, 28.5° (Epoch: 17 February)

Date Brightness Start Highest point End Pass type
(mag) Time Alt. Az. Time Alt. Az. Time Alt. Az.
20 Feb 3.0 06:32:23 10° SSW 06:34:21 14° S 06:36:20 10° SE visible
21 Feb 3.0 06:02:04 10° SSW 06:04:02 14° S 06:06:01 10° SE visible
22 Feb 2.8 05:32:39 13° SSW 05:33:43 14° S 05:35:40 10° SE visible
23 Feb 3.0 05:04:00 13° SSE 05:04:00 13° SSE 05:05:20 10° SE visible
24 Feb 3.0 06:10:52 10° SSW 06:12:06 11° S 06:13:18 10° S visible
25 Feb 2.9 05:40:47 10° SSW 05:41:43 11° S 05:42:55 10° S visible
26 Feb 3.1 05:12:08 11° S 05:12:08 11° S 05:12:32 10° S visible
